Time,TemperatureF,DewpointF,PressureIn,WindDirection,WindDirectionDegrees,WindSpeedMPH,WindSpeedGustMPH,Humidity,HourlyPrecipIn,Conditions,Clouds,dailyrainin,SoftwareType,DateUTC
2013-05-14 00:01:00,71.2,65.1,30.24,ESE,117,3.0,13.0,81,0.00,,---,0.00,VWS V14.01,2013-05-14 05:01:00,
2013-05-14 00:06:00,71.0,64.9,30.24,East,88,7.0,11.0,81,0.00,,---,0.00,VWS V14.01,2013-05-14 05:06:00,
2013-05-14 00:11:00,71.1,65.7,30.24,ESE,118,3.0,11.0,83,0.00,,---,0.00,VWS V14.01,2013-05-14 05:11:00,
2013-05-14 00:16:00,71.0,65.9,30.24,ESE,113,5.0,11.0,84,0.00,,---,0.00,VWS V14.01,2013-05-14 05:16:00,
2013-05-14 00:21:00,71.1,66.4,30.24,SE,133,5.0,11.0,85,0.00,,---,0.00,VWS V14.01,2013-05-14 05:21:00,
2013-05-14 00:26:00,71.1,66.4,30.25,ESE,117,7.0,11.0,85,0.00,,---,0.00,VWS V14.01,2013-05-14 05:26:00,
2013-05-14 00:31:00,71.0,66.6,30.25,SE,127,6.0,11.0,86,0.00,,---,0.00,VWS V14.01,2013-05-14 05:31:00,
2013-05-14 00:36:00,71.0,66.6,30.24,ESE,121,5.0,11.0,86,0.00,,---,0.00,VWS V14.01,2013-05-14 05:36:00,
2013-05-14 00:41:00,71.0,66.9,30.24,ESE,102,4.0,11.0,87,0.00,,---,0.00,VWS V14.01,2013-05-14 05:41:00,
2013-05-14 00:46:00,70.9,66.8,30.24,ESE,121,5.0,11.0,87,0.00,,---,0.00,VWS V14.01,2013-05-14 05:46:00,
2013-05-14 00:51:00,70.9,67.2,30.24,SE,128,5.0,11.0,88,0.00,,---,0.00,VWS V14.01,2013-05-14 05:51:00,
2013-05-14 00:56:00,70.9,67.2,30.24,ESE,105,7.0,11.0,88,0.00,,---,0.00,VWS V14.01,2013-05-14 05:56:00,
2013-05-14 01:01:00,70.9,67.2,30.24,SSE,150,3.0,11.0,88,0.00,,---,0.00,VWS V14.01,2013-05-14 06:01:00,
2013-05-14 01:06:00,70.9,67.5,30.24,SE,143,1.0,8.0,89,0.00,,---,0.00,VWS V14.01,2013-05-14 06:06:00,
2013-05-14 01:11:00,70.9,67.5,30.24,ESE,109,4.0,8.0,89,0.00,,---,0.00,VWS V14.01,2013-05-14 06:11:00,
2013-05-14 01:16:00,70.8,67.4,30.24,SSE,150,4.0,9.0,89,0.00,,---,0.00,VWS V14.01,2013-05-14 06:16:00,
2013-05-14 01:21:00,70.9,67.5,30.25,SE,145,6.0,9.0,89,0.00,,---,0.00,VWS V14.01,2013-05-14 06:21:00,
2013-05-14 01:26:00,70.9,67.5,30.25,SE,129,1.0,9.0,89,0.00,,---,0.00,VWS V14.01,2013-05-14 06:26:00,
2013-05-14 01:31:00,71.0,67.3,30.24,SE,127,1.0,10.0,88,0.00,,---,0.00,VWS V14.01,2013-05-14 06:31:00,
2013-05-14 01:36:00,70.9,67.2,30.24,SE,142,2.0,10.0,88,0.00,,---,0.00,VWS V14.01,2013-05-14 06:36:00,
2013-05-14 01:41:00,71.0,67.6,30.24,East,95,8.0,10.0,89,0.00,,---,0.00,VWS V14.01,2013-05-14 06:41:00,
2013-05-14 01:46:00,71.1,67.7,30.24,East,98,3.0,10.0,89,0.00,,---,0.00,VWS V14.01,2013-05-14 06:46:00,
2013-05-14 01:51:00,71.0,67.6,30.24,SE,133,3.0,10.0,89,0.00,,---,0.00,VWS V14.01,2013-05-14 06:51:00,
2013-05-14 01:56:00,71.0,67.6,30.24,East,84,8.0,11.0,89,0.00,,---,0.00,VWS V14.01,2013-05-14 06:56:00,
2013-05-14 02:01:00,70.9,67.5,30.23,SSE,153,2.0,11.0,89,0.00,,---,0.00,VWS V14.01,2013-05-14 07:01:00,
2013-05-14 02:06:00,71.0,67.6,30.23,ESE,110,2.0,6.0,89,0.00,,---,0.00,VWS V14.01,2013-05-14 07:06:00,
2013-05-14 02:11:00,71.0,67.6,30.23,ESE,116,2.0,9.0,89,0.00,,---,0.00,VWS V14.01,2013-05-14 07:11:00,
2013-05-14 02:16:00,71.1,67.7,30.23,ESE,118,3.0,9.0,89,0.00,,---,0.00,VWS V14.01,2013-05-14 07:16:00,
2013-05-14 02:21:00,71.0,67.6,30.23,SE,126,1.0,9.0,89,0.00,,---,0.00,VWS V14.01,2013-05-14 07:21:00,
2013-05-14 02:26:00,70.9,67.5,30.22,ESE,114,2.0,9.0,89,0.00,,---,0.00,VWS V14.01,2013-05-14 07:26:00,
2013-05-14 02:31:00,70.9,67.5,30.22,ESE,116,6.0,9.0,89,0.00,,---,0.00,VWS V14.01,2013-05-14 07:31:00,
2013-05-14 02:36:00,71.0,67.6,30.22,ESE,121,6.0,9.0,89,0.00,,---,0.00,VWS V14.01,2013-05-14 07:36:00,
2013-05-14 02:41:00,71.0,67.6,30.21,ESE,114,5.0,9.0,89,0.00,,---,0.00,VWS V14.01,2013-05-14 07:41:00,
2013-05-14 02:46:00,71.1,67.7,30.21,SE,142,8.0,10.0,89,0.00,,---,0.00,VWS V14.01,2013-05-14 07:46:00,
2013-05-14 02:51:00,71.1,67.7,30.21,SE,124,5.0,10.0,89,0.00,,---,0.00,VWS V14.01,2013-05-14 07:51:00,
2013-05-14 02:56:00,71.1,67.7,30.21,East,98,10.0,10.0,89,0.00,,---,0.00,VWS V14.01,2013-05-14 07:56:00,
2013-05-14 03:01:00,71.1,67.7,30.21,SE,143,4.0,10.0,89,0.00,,---,0.00,VWS V14.01,2013-05-14 08:01:00,
2013-05-14 03:06:00,71.1,67.7,30.21,SE,129,7.0,7.0,89,0.00,,---,0.00,VWS V14.01,2013-05-14 08:06:00,
2013-05-14 03:11:00,71.1,67.7,30.21,SE,125,2.0,8.0,89,0.00,,---,0.00,VWS V14.01,2013-05-14 08:11:00,
2013-05-14 03:16:00,71.1,67.7,30.21,ESE,120,2.0,8.0,89,0.00,,---,0.00,VWS V14.01,2013-05-14 08:16:00,
2013-05-14 03:21:00,71.0,67.9,30.21,SE,143,3.0,8.0,90,0.00,,---,0.00,VWS V14.01,2013-05-14 08:21:00,
2013-05-14 03:26:00,70.9,67.8,30.21,ESE,123,3.0,8.0,90,0.00,,---,0.00,VWS V14.01,2013-05-14 08:26:00,
2013-05-14 03:31:00,70.7,67.6,30.21,SE,133,2.0,8.0,90,0.00,,---,0.00,VWS V14.01,2013-05-14 08:31:00,
2013-05-14 03:36:00,70.8,67.7,30.21,SE,139,2.0,8.0,90,0.00,,---,0.00,VWS V14.01,2013-05-14 08:36:00,
2013-05-14 03:41:00,70.8,67.7,30.21,East,96,3.0,8.0,90,0.00,,---,0.00,VWS V14.01,2013-05-14 08:41:00,
2013-05-14 03:46:00,70.8,67.7,30.21,SE,129,4.0,8.0,90,0.00,,---,0.00,VWS V14.01,2013-05-14 08:46:00,
2013-05-14 03:51:00,70.8,67.7,30.21,ESE,121,2.0,8.0,90,0.00,,---,0.00,VWS V14.01,2013-05-14 08:51:00,
2013-05-14 03:56:00,70.8,67.7,30.21,SE,143,3.0,8.0,90,0.00,,---,0.00,VWS V14.01,2013-05-14 08:56:00,
2013-05-14 04:01:00,70.8,67.7,30.21,SE,125,7.0,8.0,90,0.00,,---,0.00,VWS V14.01,2013-05-14 09:01:00,
2013-05-14 04:06:00,70.7,67.6,30.21,SE,135,4.0,6.0,90,0.00,,---,0.00,VWS V14.01,2013-05-14 09:06:00,
2013-05-14 04:11:00,70.8,67.7,30.20,SSE,155,3.0,6.0,90,0.00,,---,0.00,VWS V14.01,2013-05-14 09:11:00,
2013-05-14 04:16:00,70.9,67.8,30.20,SE,127,3.0,7.0,90,0.00,,---,0.00,VWS V14.01,2013-05-14 09:16:00,
2013-05-14 04:21:00,70.7,67.3,30.20,SSE,160,0.0,8.0,89,0.00,,---,0.00,VWS V14.01,2013-05-14 09:21:00,
2013-05-14 04:26:00,70.7,67.3,30.20,SE,127,0.0,8.0,89,0.00,,---,0.00,VWS V14.01,2013-05-14 09:26:00,
2013-05-14 04:31:00,70.7,67.3,30.20,ESE,117,4.0,8.0,89,0.00,,---,0.00,VWS V14.01,2013-05-14 09:31:00,
2013-05-14 04:36:00,70.7,67.0,30.20,ESE,117,3.0,8.0,88,0.00,,---,0.00,VWS V14.01,2013-05-14 09:36:00,
2013-05-14 04:41:00,70.8,67.1,30.19,SE,146,3.0,8.0,88,0.00,,---,0.00,VWS V14.01,2013-05-14 09:41:00,
2013-05-14 04:46:00,70.7,67.0,30.19,ESE,120,3.0,8.0,88,0.00,,---,0.00,VWS V14.01,2013-05-14 09:46:00,
2013-05-14 04:51:00,70.8,67.1,30.19,ESE,118,5.0,8.0,88,0.00,,---,0.00,VWS V14.01,2013-05-14 09:51:00,
2013-05-14 04:56:00,70.9,66.8,30.18,ESE,114,5.0,9.0,87,0.00,,---,0.00,VWS V14.01,2013-05-14 09:56:00,
2013-05-14 05:01:00,70.9,66.8,30.18,ESE,107,4.0,9.0,87,0.00,,---,0.00,VWS V14.01,2013-05-14 10:01:00,
2013-05-14 05:06:00,70.9,66.8,30.18,ESE,112,5.0,8.0,87,0.00,,---,0.00,VWS V14.01,2013-05-14 10:06:00,
2013-05-14 05:11:00,71.0,66.9,30.18,SE,138,4.0,8.0,87,0.00,,---,0.00,VWS V14.01,2013-05-14 10:11:00,
2013-05-14 05:16:00,71.0,66.9,30.17,ESE,115,6.0,8.0,87,0.00,,---,0.00,VWS V14.01,2013-05-14 10:16:00,
2013-05-14 05:21:00,71.0,66.6,30.17,ESE,123,3.0,8.0,86,0.00,,---,0.00,VWS V14.01,2013-05-14 10:21:00,
2013-05-14 05:26:00,71.0,66.6,30.17,ESE,116,3.0,8.0,86,0.00,,---,0.00,VWS V14.01,2013-05-14 10:26:00,
2013-05-14 05:31:00,71.0,66.6,30.17,ESE,113,3.0,8.0,86,0.00,,---,0.00,VWS V14.01,2013-05-14 10:31:00,
2013-05-14 05:36:00,71.0,66.6,30.17,ESE,118,5.0,9.0,86,0.00,,---,0.00,VWS V14.01,2013-05-14 10:36:00,
2013-05-14 05:41:00,71.1,66.7,30.17,ESE,120,7.0,9.0,86,0.00,,---,0.00,VWS V14.01,2013-05-14 10:41:00,
2013-05-14 05:46:00,71.2,66.8,30.17,ESE,120,6.0,11.0,86,0.00,,---,0.00,VWS V14.01,2013-05-14 10:46:00,
2013-05-14 05:51:00,71.3,66.9,30.17,ESE,112,6.0,11.0,86,0.00,,---,0.00,VWS V14.01,2013-05-14 10:51:00,
2013-05-14 05:56:00,71.2,66.8,30.17,ESE,103,3.0,11.0,86,0.00,,---,0.00,VWS V14.01,2013-05-14 10:56:00,
2013-05-14 06:01:00,71.2,66.8,30.16,ESE,107,6.0,11.0,86,0.00,,---,0.00,VWS V14.01,2013-05-14 11:01:00,
2013-05-14 06:06:00,71.3,67.2,30.17,SSE,149,5.0,9.0,87,0.00,,---,0.00,VWS V14.01,2013-05-14 11:06:00,
2013-05-14 06:11:00,71.3,67.2,30.17,East,98,8.0,11.0,87,0.00,,---,0.00,VWS V14.01,2013-05-14 11:11:00,
2013-05-14 06:16:00,71.3,67.2,30.16,East,101,5.0,11.0,87,0.00,,---,0.00,VWS V14.01,2013-05-14 11:16:00,
2013-05-14 06:21:00,71.2,67.1,30.16,SE,124,8.0,11.0,87,0.00,,---,0.00,VWS V14.01,2013-05-14 11:21:00,
2013-05-14 06:26:00,71.3,67.2,30.16,SE,129,11.0,11.0,87,0.00,,---,0.00,VWS V14.01,2013-05-14 11:26:00,
2013-05-14 06:31:00,71.4,67.0,30.17,ESE,110,3.0,13.0,86,0.00,,---,0.00,VWS V14.01,2013-05-14 11:31:00,
2013-05-14 06:36:00,71.4,67.3,30.17,East,82,10.0,13.0,87,0.00,,---,0.00,VWS V14.01,2013-05-14 11:36:00,
2013-05-14 06:41:00,71.5,67.4,30.17,ESE,110,6.0,13.0,87,0.00,,---,0.00,VWS V14.01,2013-05-14 11:41:00,
2013-05-14 06:46:00,71.5,67.4,30.17,ESE,123,6.0,13.0,87,0.00,,---,0.00,VWS V14.01,2013-05-14 11:46:00,
2013-05-14 06:51:00,71.6,67.5,30.17,ESE,117,11.0,14.0,87,0.00,,---,0.00,VWS V14.01,2013-05-14 11:51:00,
2013-05-14 06:56:00,71.7,67.6,30.17,ESE,113,11.0,14.0,87,0.00,,---,0.00,VWS V14.01,2013-05-14 11:56:00,
2013-05-14 07:01:00,71.8,67.7,30.17,East,94,9.0,14.0,87,0.00,,---,0.00,VWS V14.01,2013-05-14 12:01:00,
2013-05-14 07:06:00,71.8,67.7,30.17,SE,127,6.0,11.0,87,0.00,,---,0.00,VWS V14.01,2013-05-14 12:06:00,
2013-05-14 07:11:00,71.9,67.8,30.18,SE,129,6.0,12.0,87,0.00,,---,0.00,VWS V14.01,2013-05-14 12:11:00,
2013-05-14 07:16:00,71.9,67.8,30.18,East,101,9.0,12.0,87,0.00,,---,0.00,VWS V14.01,2013-05-14 12:16:00,
2013-05-14 07:22:00,72.0,67.9,30.18,ENE,77,10.0,12.0,87,0.00,,---,0.00,VWS V14.01,2013-05-14 12:22:00,
2013-05-14 07:27:00,72.0,67.9,30.18,East,96,7.0,15.0,87,0.00,,---,0.00,VWS V14.01,2013-05-14 12:27:00,
2013-05-14 07:32:00,72.0,67.6,30.18,ESE,116,9.0,15.0,86,0.00,,---,0.00,VWS V14.01,2013-05-14 12:32:00,
2013-05-14 07:37:00,72.2,67.8,30.18,SE,142,7.0,15.0,86,0.00,,---,0.00,VWS V14.01,2013-05-14 12:37:00,
2013-05-14 07:42:00,72.2,67.8,30.18,East,96,8.0,15.0,86,0.00,,---,0.00,VWS V14.01,2013-05-14 12:42:00,
2013-05-14 07:46:00,72.3,67.9,30.19,SE,127,8.0,15.0,86,0.00,,---,0.00,VWS V14.01,2013-05-14 12:46:00,
2013-05-14 07:51:00,72.5,68.1,30.19,East,98,2.0,15.0,86,0.00,,---,0.00,VWS V14.01,2013-05-14 12:51:00,
2013-05-14 07:56:00,72.7,67.9,30.19,ESE,106,8.0,15.0,85,0.00,,---,0.00,VWS V14.01,2013-05-14 12:56:00,
2013-05-14 08:01:00,72.7,68.3,30.19,East,93,6.0,15.0,86,0.00,,---,0.00,VWS V14.01,2013-05-14 13:01:00,
2013-05-14 08:06:00,72.7,68.3,30.19,SE,133,8.0,11.0,86,0.00,,---,0.00,VWS V14.01,2013-05-14 13:06:00,
2013-05-14 08:11:00,72.6,68.2,30.20,ESE,110,8.0,11.0,86,0.00,,---,0.00,VWS V14.01,2013-05-14 13:11:00,
2013-05-14 08:16:00,72.7,68.6,30.20,ESE,118,7.0,11.0,87,0.00,,---,0.00,VWS V14.01,2013-05-14 13:16:00,
2013-05-14 08:21:00,72.7,68.3,30.20,SE,132,10.0,13.0,86,0.00,,---,0.00,VWS V14.01,2013-05-14 13:21:00,
2013-05-14 08:26:00,72.7,68.3,30.20,SE,127,10.0,13.0,86,0.00,,---,0.00,VWS V14.01,2013-05-14 13:26:00,
2013-05-14 08:31:00,72.7,68.6,30.21,ESE,105,8.0,13.0,87,0.00,,---,0.00,VWS V14.01,2013-05-14 13:31:00,
2013-05-14 08:37:00,72.7,68.3,30.21,SSE,151,7.0,13.0,86,0.00,,---,0.00,VWS V14.01,2013-05-14 13:37:00,
2013-05-14 08:42:00,72.8,68.7,30.22,SE,126,8.0,13.0,87,0.00,,---,0.00,VWS V14.01,2013-05-14 13:42:00,
2013-05-14 08:47:00,72.8,68.4,30.22,SE,145,6.0,13.0,86,0.00,,---,0.00,VWS V14.01,2013-05-14 13:47:00,
2013-05-14 08:52:00,72.8,68.4,30.22,SE,128,4.0,13.0,86,0.00,,---,0.00,VWS V14.01,2013-05-14 13:52:00,
2013-05-14 08:57:00,73.0,68.9,30.22,ESE,122,3.0,13.0,87,0.00,,---,0.00,VWS V14.01,2013-05-14 13:57:00,
2013-05-14 09:02:00,73.2,68.8,30.22,ESE,117,8.0,13.0,86,0.00,,---,0.00,VWS V14.01,2013-05-14 14:02:00,
2013-05-14 09:07:00,73.2,68.8,30.22,East,101,8.0,11.0,86,0.00,,---,0.00,VWS V14.01,2013-05-14 14:07:00,
2013-05-14 09:12:00,73.3,68.9,30.22,ESE,120,10.0,12.0,86,0.00,,---,0.00,VWS V14.01,2013-05-14 14:12:00,
2013-05-14 09:17:00,73.8,69.3,30.22,East,79,8.0,12.0,86,0.00,,---,0.00,VWS V14.01,2013-05-14 14:17:00,
2013-05-14 09:22:00,74.0,69.2,30.22,SE,129,3.0,12.0,85,0.00,,---,0.00,VWS V14.01,2013-05-14 14:22:00,
2013-05-14 09:27:00,74.0,68.9,30.23,ESE,102,7.0,12.0,84,0.00,,---,0.00,VWS V14.01,2013-05-14 14:27:00,
2013-05-14 09:32:00,73.8,69.0,30.22,ESE,115,5.0,12.0,85,0.00,,---,0.00,VWS V14.01,2013-05-14 14:32:00,
2013-05-14 09:37:00,73.8,69.0,30.22,ESE,118,8.0,12.0,85,0.00,,---,0.00,VWS V14.01,2013-05-14 14:37:00,
2013-05-14 09:42:00,73.8,69.0,30.22,ESE,117,6.0,12.0,85,0.00,,---,0.00,VWS V14.01,2013-05-14 14:42:00,
2013-05-14 09:47:00,74.1,69.3,30.23,ESE,122,2.0,12.0,85,0.00,,---,0.00,VWS V14.01,2013-05-14 14:47:00,
2013-05-14 09:52:00,74.6,69.8,30.23,ESE,110,7.0,12.0,85,0.00,,---,0.00,VWS V14.01,2013-05-14 14:52:00,
2013-05-14 09:57:00,74.7,69.6,30.23,ESE,123,3.0,12.0,84,0.00,,---,0.00,VWS V14.01,2013-05-14 14:57:00,
2013-05-14 10:02:00,74.8,69.3,30.23,East,94,3.0,12.0,83,0.00,,---,0.00,VWS V14.01,2013-05-14 15:02:00,
2013-05-14 10:07:00,75.0,69.8,30.23,ESE,116,9.0,11.0,84,0.00,,---,0.00,VWS V14.01,2013-05-14 15:07:00,
2013-05-14 10:12:00,75.0,69.5,30.23,ESE,117,5.0,11.0,83,0.00,,---,0.00,VWS V14.01,2013-05-14 15:12:00,
2013-05-14 10:17:00,75.4,69.9,30.23,SSW,200,5.0,11.0,83,0.00,,---,0.00,VWS V14.01,2013-05-14 15:17:00,
2013-05-14 10:22:00,75.3,69.8,30.23,ESE,121,5.0,11.0,83,0.00,,---,0.00,VWS V14.01,2013-05-14 15:22:00,
2013-05-14 10:27:00,75.5,70.0,30.23,SSE,152,7.0,11.0,83,0.00,,---,0.00,VWS V14.01,2013-05-14 15:27:00,
2013-05-14 10:32:00,76.0,69.4,30.23,ESE,120,9.0,11.0,80,0.00,,---,0.00,VWS V14.01,2013-05-14 15:32:00,
2013-05-14 10:37:00,75.9,69.7,30.23,ESE,108,10.0,11.0,81,0.00,,---,0.00,VWS V14.01,2013-05-14 15:37:00,
2013-05-14 10:42:00,75.6,69.7,30.23,SE,134,8.0,11.0,82,0.00,,---,0.00,VWS V14.01,2013-05-14 15:42:00,
2013-05-14 10:47:00,75.4,69.9,30.23,ESE,116,4.0,11.0,83,0.00,,---,0.00,VWS V14.01,2013-05-14 15:47:00,
2013-05-14 10:52:00,75.4,69.9,30.23,East,90,2.0,12.0,83,0.00,,---,0.00,VWS V14.01,2013-05-14 15:52:00,
2013-05-14 10:57:00,75.7,70.2,30.23,East,89,5.0,12.0,83,0.00,,---,0.00,VWS V14.01,2013-05-14 15:57:00,
2013-05-14 11:02:00,75.7,69.8,30.23,ESE,115,11.0,11.0,82,0.00,,---,0.00,VWS V14.01,2013-05-14 16:02:00,
2013-05-14 11:07:00,75.6,69.7,30.23,SE,127,10.0,13.0,82,0.00,,---,0.00,VWS V14.01,2013-05-14 16:07:00,
2013-05-14 11:12:00,75.6,70.1,30.23,SE,134,5.0,13.0,83,0.00,,---,0.00,VWS V14.01,2013-05-14 16:12:00,
2013-05-14 11:17:00,75.9,70.0,30.23,ESE,115,8.0,13.0,82,0.00,,---,0.00,VWS V14.01,2013-05-14 16:17:00,
2013-05-14 11:22:00,75.8,69.9,30.23,ESE,122,6.0,13.0,82,0.00,,---,0.00,VWS V14.01,2013-05-14 16:22:00,
2013-05-14 11:27:00,75.9,70.0,30.23,ESE,113,11.0,13.0,82,0.00,,---,0.00,VWS V14.01,2013-05-14 16:27:00,
2013-05-14 11:32:00,75.6,70.1,30.23,ESE,122,12.0,13.0,83,0.00,,---,0.00,VWS V14.01,2013-05-14 16:32:00,
2013-05-14 11:37:00,75.7,70.2,30.23,East,101,8.0,14.0,83,0.00,,---,0.00,VWS V14.01,2013-05-14 16:37:00,
2013-05-14 11:42:00,76.0,70.1,30.23,ESE,103,11.0,14.0,82,0.00,,---,0.00,VWS V14.01,2013-05-14 16:42:00,
2013-05-14 11:47:00,76.4,70.1,30.23,ESE,105,10.0,14.0,81,0.00,,---,0.00,VWS V14.01,2013-05-14 16:47:00,
2013-05-14 11:52:00,76.4,70.5,30.23,ESE,122,10.0,17.0,82,0.00,,---,0.00,VWS V14.01,2013-05-14 16:52:00,
2013-05-14 11:57:00,76.7,70.8,30.23,ESE,121,7.0,17.0,82,0.00,,---,0.00,VWS V14.01,2013-05-14 16:57:00,
2013-05-14 12:02:00,76.8,70.9,30.23,East,85,8.0,10.0,82,0.00,,---,0.00,VWS V14.01,2013-05-14 17:02:00,
2013-05-14 12:07:00,76.9,70.3,30.23,SE,125,6.0,13.0,80,0.00,,---,0.00,VWS V14.01,2013-05-14 17:07:00,
2013-05-14 12:12:00,76.0,69.8,30.23,ESE,107,7.0,15.0,81,0.00,,---,0.00,VWS V14.01,2013-05-14 17:12:00,
2013-05-14 12:17:00,76.0,70.5,30.23,ESE,116,7.0,15.0,83,0.00,,---,0.00,VWS V14.01,2013-05-14 17:17:00,
2013-05-14 12:22:00,76.1,70.2,30.23,ESE,105,11.0,15.0,82,0.00,,---,0.00,VWS V14.01,2013-05-14 17:22:00,
2013-05-14 12:27:00,75.8,70.3,30.23,ESE,108,7.0,15.0,83,0.00,,---,0.00,VWS V14.01,2013-05-14 17:27:00,
2013-05-14 12:32:00,75.5,70.0,30.23,East,88,9.0,15.0,83,0.00,,---,0.00,VWS V14.01,2013-05-14 17:32:00,
2013-05-14 12:37:00,75.3,69.8,30.23,SE,132,9.0,15.0,83,0.00,,---,0.00,VWS V14.01,2013-05-14 17:37:00,
2013-05-14 12:42:00,75.1,69.9,30.22,ESE,117,7.0,15.0,84,0.00,,---,0.00,VWS V14.01,2013-05-14 17:42:00,
2013-05-14 12:47:00,75.2,70.0,30.22,ESE,115,6.0,15.0,84,0.00,,---,0.00,VWS V14.01,2013-05-14 17:47:00,
2013-05-14 12:52:00,75.2,70.0,30.22,SE,133,2.0,15.0,84,0.00,,---,0.00,VWS V14.01,2013-05-14 17:52:00,
2013-05-14 12:57:00,75.6,70.4,30.22,East,79,8.0,15.0,84,0.00,,---,0.00,VWS V14.01,2013-05-14 17:57:00,
2013-05-14 13:02:00,76.1,70.6,30.22,SE,134,10.0,10.0,83,0.00,,---,0.00,VWS V14.01,2013-05-14 18:02:00,
2013-05-14 13:07:00,76.4,70.9,30.21,ENE,77,7.0,14.0,83,0.00,,---,0.00,VWS V14.01,2013-05-14 18:07:00,
2013-05-14 13:12:00,76.6,70.7,30.21,ESE,109,8.0,16.0,82,0.00,,---,0.00,VWS V14.01,2013-05-14 18:12:00,
2013-05-14 13:17:00,76.7,70.8,30.21,ESE,113,12.0,18.0,82,0.00,,---,0.00,VWS V14.01,2013-05-14 18:17:00,
2013-05-14 13:22:00,77.0,71.1,30.20,ESE,113,8.0,18.0,82,0.00,,---,0.00,VWS V14.01,2013-05-14 18:22:00,
2013-05-14 13:27:00,77.4,71.5,30.20,ESE,110,8.0,18.0,82,0.00,,---,0.00,VWS V14.01,2013-05-14 18:27:00,
2013-05-14 13:32:00,77.4,71.5,30.20,SE,131,12.0,18.0,82,0.00,,---,0.00,VWS V14.01,2013-05-14 18:32:00,
2013-05-14 13:37:00,77.2,70.9,30.20,ENE,72,9.0,18.0,81,0.00,,---,0.00,VWS V14.01,2013-05-14 18:37:00,
2013-05-14 13:42:00,77.1,71.2,30.20,ESE,103,5.0,18.0,82,0.00,,---,0.00,VWS V14.01,2013-05-14 18:42:00,
2013-05-14 13:47:00,77.3,71.7,30.19,SE,139,6.0,18.0,83,0.00,,---,0.00,VWS V14.01,2013-05-14 18:47:00,
2013-05-14 13:52:00,77.3,71.0,30.19,ESE,122,7.0,18.0,81,0.00,,---,0.00,VWS V14.01,2013-05-14 18:52:00,
2013-05-14 13:57:00,77.0,71.1,30.19,SSE,155,10.0,18.0,82,0.00,,---,0.00,VWS V14.01,2013-05-14 18:57:00,
2013-05-14 14:02:00,76.8,70.5,30.20,ESE,122,13.0,14.0,81,0.00,,---,0.00,VWS V14.01,2013-05-14 19:02:00,
2013-05-14 14:07:00,76.6,71.1,30.20,SE,125,10.0,15.0,83,0.00,,---,0.00,VWS V14.01,2013-05-14 19:07:00,
2013-05-14 14:12:00,76.7,70.8,30.20,SSE,148,7.0,15.0,82,0.00,,---,0.00,VWS V14.01,2013-05-14 19:12:00,
2013-05-14 14:17:00,76.6,71.1,30.20,SSE,148,9.0,15.0,83,0.00,,---,0.00,VWS V14.01,2013-05-14 19:17:00,
2013-05-14 14:22:00,76.5,71.0,30.19,ESE,120,13.0,15.0,83,0.00,,---,0.00,VWS V14.01,2013-05-14 19:22:00,
2013-05-14 14:27:00,76.6,71.4,30.19,SE,126,14.0,15.0,84,0.00,,---,0.00,VWS V14.01,2013-05-14 19:27:00,
2013-05-14 14:32:00,76.9,71.3,30.20,SSE,153,6.0,16.0,83,0.00,,---,0.00,VWS V14.01,2013-05-14 19:32:00,
2013-05-14 14:37:00,77.2,71.3,30.19,SE,134,6.0,16.0,82,0.00,,---,0.00,VWS V14.01,2013-05-14 19:37:00,
2013-05-14 14:42:00,77.5,71.6,30.19,SE,131,11.0,16.0,82,0.00,,---,0.00,VWS V14.01,2013-05-14 19:42:00,
2013-05-14 14:47:00,77.6,70.9,30.19,ESE,118,10.0,16.0,80,0.00,,---,0.00,VWS V14.01,2013-05-14 19:47:00,
2013-05-14 14:52:00,77.6,71.3,30.19,ESE,106,10.0,16.0,81,0.00,,---,0.00,VWS V14.01,2013-05-14 19:52:00,
2013-05-14 14:57:00,77.2,71.3,30.19,SE,133,11.0,16.0,82,0.00,,---,0.00,VWS V14.01,2013-05-14 19:57:00,
2013-05-14 15:02:00,77.1,71.2,30.19,ENE,74,4.0,8.0,82,0.00,,---,0.00,VWS V14.01,2013-05-14 20:02:00,
2013-05-14 15:07:00,76.9,71.0,30.18,SE,133,12.0,15.0,82,0.00,,---,0.00,VWS V14.01,2013-05-14 20:07:00,
2013-05-14 15:12:00,77.4,71.8,30.18,ESE,120,13.0,15.0,83,0.00,,---,0.00,VWS V14.01,2013-05-14 20:12:00,
2013-05-14 15:17:00,76.6,71.4,30.18,SE,141,8.0,15.0,84,0.00,,---,0.00,VWS V14.01,2013-05-14 20:17:00,
2013-05-14 15:22:00,76.3,71.1,30.18,ESE,117,9.0,15.0,84,0.00,,---,0.00,VWS V14.01,2013-05-14 20:22:00,
2013-05-14 15:27:00,76.2,71.4,30.18,ESE,122,8.0,15.0,85,0.00,,---,0.00,VWS V14.01,2013-05-14 20:27:00,
2013-05-14 15:32:00,76.0,71.2,30.17,ESE,113,9.0,15.0,85,0.00,,---,0.00,VWS V14.01,2013-05-14 20:32:00,
2013-05-14 15:37:00,76.4,71.6,30.17,SE,146,14.0,16.0,85,0.00,,---,0.00,VWS V14.01,2013-05-14 20:37:00,
2013-05-14 15:42:00,76.6,71.4,30.17,SE,128,11.0,17.0,84,0.00,,---,0.00,VWS V14.01,2013-05-14 20:42:00,
2013-05-14 15:47:00,76.7,71.9,30.17,ESE,110,5.0,17.0,85,0.00,,---,0.00,VWS V14.01,2013-05-14 20:47:00,
2013-05-14 15:52:00,76.8,71.6,30.17,SE,132,9.0,17.0,84,0.00,,---,0.00,VWS V14.01,2013-05-14 20:52:00,
2013-05-14 15:57:00,76.7,71.5,30.16,SE,143,10.0,17.0,84,0.00,,---,0.00,VWS V14.01,2013-05-14 20:57:00,
2013-05-14 16:02:00,76.4,71.2,30.16,ESE,115,6.0,12.0,84,0.00,,---,0.00,VWS V14.01,2013-05-14 21:02:00,
2013-05-14 16:07:00,76.5,71.7,30.16,ESE,118,13.0,17.0,85,0.00,,---,0.00,VWS V14.01,2013-05-14 21:07:00,
2013-05-14 16:12:00,76.8,71.2,30.16,ESE,102,10.0,17.0,83,0.00,,---,0.00,VWS V14.01,2013-05-14 21:12:00,
2013-05-14 16:17:00,77.1,71.9,30.16,SSE,148,9.0,17.0,84,0.00,,---,0.00,VWS V14.01,2013-05-14 21:17:00,
2013-05-14 16:22:00,77.4,71.8,30.16,East,98,14.0,17.0,83,0.00,,---,0.00,VWS V14.01,2013-05-14 21:22:00,
2013-05-14 16:27:00,77.6,71.7,30.16,South,172,11.0,17.0,82,0.00,,---,0.00,VWS V14.01,2013-05-14 21:27:00,
2013-05-14 16:32:00,77.6,72.0,30.16,SE,133,1.0,17.0,83,0.00,,---,0.00,VWS V14.01,2013-05-14 21:32:00,
2013-05-14 16:37:00,77.6,71.7,30.15,SE,131,7.0,17.0,82,0.00,,---,0.00,VWS V14.01,2013-05-14 21:37:00,
2013-05-14 16:42:00,78.0,72.1,30.15,South,170,4.0,17.0,82,0.00,,---,0.00,VWS V14.01,2013-05-14 21:42:00,
2013-05-14 16:47:00,77.9,72.0,30.15,SE,130,5.0,17.0,82,0.00,,---,0.00,VWS V14.01,2013-05-14 21:47:00,
2013-05-14 16:52:00,77.7,71.4,30.15,East,87,5.0,17.0,81,0.00,,---,0.00,VWS V14.01,2013-05-14 21:52:00,
2013-05-14 16:57:00,77.7,71.8,30.15,SE,138,4.0,17.0,82,0.00,,---,0.00,VWS V14.01,2013-05-14 21:57:00,
2013-05-14 17:02:00,77.4,71.5,30.15,East,95,8.0,12.0,82,0.00,,---,0.00,VWS V14.01,2013-05-14 22:02:00,
2013-05-14 17:07:00,77.3,71.7,30.14,SE,133,10.0,12.0,83,0.00,,---,0.00,VWS V14.01,2013-05-14 22:07:00,
2013-05-14 17:12:00,77.3,71.7,30.14,SSE,158,7.0,15.0,83,0.00,,---,0.00,VWS V14.01,2013-05-14 22:12:00,
2013-05-14 17:17:00,77.0,71.8,30.14,ESE,102,9.0,15.0,84,0.00,,---,0.00,VWS V14.01,2013-05-14 22:17:00,
2013-05-14 17:22:00,76.8,71.2,30.14,East,101,12.0,15.0,83,0.00,,---,0.00,VWS V14.01,2013-05-14 22:22:00,
2013-05-14 17:27:00,76.7,71.5,30.14,ESE,118,3.0,15.0,84,0.00,,---,0.00,VWS V14.01,2013-05-14 22:27:00,
2013-05-14 17:32:00,76.4,71.2,30.14,ESE,117,6.0,15.0,84,0.00,,---,0.00,VWS V14.01,2013-05-14 22:32:00,
2013-05-14 17:37:00,76.1,71.3,30.14,SE,133,5.0,15.0,85,0.00,,---,0.00,VWS V14.01,2013-05-14 22:37:00,
2013-05-14 17:42:00,76.1,71.3,30.14,SE,138,8.0,15.0,85,0.00,,---,0.00,VWS V14.01,2013-05-14 22:42:00,
2013-05-14 17:47:00,75.7,71.2,30.13,ESE,117,5.0,17.0,86,0.00,,---,0.00,VWS V14.01,2013-05-14 22:47:00,
2013-05-14 17:52:00,75.5,71.0,30.13,East,92,15.0,17.0,86,0.00,,---,0.00,VWS V14.01,2013-05-14 22:52:00,
2013-05-14 17:57:00,75.4,70.9,30.13,ESE,122,12.0,17.0,86,0.00,,---,0.00,VWS V14.01,2013-05-14 22:57:00,
2013-05-14 18:02:00,75.3,70.8,30.12,East,94,5.0,11.0,86,0.00,,---,0.00,VWS V14.01,2013-05-14 23:02:00,
2013-05-14 18:07:00,75.2,71.1,30.12,ESE,119,9.0,14.0,87,0.00,,---,0.00,VWS V14.01,2013-05-14 23:07:00,
2013-05-14 18:12:00,75.1,71.0,30.12,ESE,118,12.0,14.0,87,0.00,,---,0.00,VWS V14.01,2013-05-14 23:12:00,
2013-05-14 18:17:00,75.1,71.0,30.12,ESE,112,4.0,14.0,87,0.00,,---,0.00,VWS V14.01,2013-05-14 23:17:00,
2013-05-14 18:22:00,75.1,71.0,30.12,ESE,122,8.0,14.0,87,0.00,,---,0.00,VWS V14.01,2013-05-14 23:22:00,
2013-05-14 18:27:00,75.1,71.3,30.12,ESE,122,10.0,14.0,88,0.00,,---,0.00,VWS V14.01,2013-05-14 23:27:00,
2013-05-14 18:32:00,74.9,70.8,30.11,East,89,7.0,15.0,87,0.00,,---,0.00,VWS V14.01,2013-05-14 23:32:00,
2013-05-14 18:37:00,74.7,70.9,30.11,SE,143,9.0,15.0,88,0.00,,---,0.00,VWS V14.01,2013-05-14 23:37:00,
2013-05-14 18:42:00,74.6,70.8,30.11,SE,124,10.0,15.0,88,0.00,,---,0.00,VWS V14.01,2013-05-14 23:42:00,
2013-05-14 18:47:00,74.5,70.7,30.11,SE,126,8.0,15.0,88,0.00,,---,0.00,VWS V14.01,2013-05-14 23:47:00,
2013-05-14 18:52:00,74.6,71.2,30.11,ESE,120,7.0,15.0,89,0.00,,---,0.00,VWS V14.01,2013-05-14 23:52:00,
2013-05-14 18:57:00,74.4,70.6,30.11,SE,141,11.0,15.0,88,0.00,,---,0.00,VWS V14.01,2013-05-14 23:57:00,
2013-05-14 19:02:00,74.4,70.9,30.11,ESE,118,11.0,17.0,89,0.00,,---,0.00,VWS V14.01,2013-05-15 00:02:00,
2013-05-14 19:07:00,74.3,70.5,30.11,SSE,148,9.0,17.0,88,0.00,,---,0.00,VWS V14.01,2013-05-15 00:07:00,
2013-05-14 19:12:00,74.3,70.5,30.11,SSE,158,8.0,17.0,88,0.00,,---,0.00,VWS V14.01,2013-05-15 00:12:00,
2013-05-14 19:17:00,74.2,70.4,30.11,SE,146,7.0,17.0,88,0.00,,---,0.00,VWS V14.01,2013-05-15 00:17:00,
2013-05-14 19:22:00,74.2,70.8,30.11,ESE,109,10.0,17.0,89,0.00,,---,0.00,VWS V14.01,2013-05-15 00:22:00,
2013-05-14 19:28:00,74.1,70.7,30.11,ESE,109,10.0,17.0,89,0.00,,---,0.00,VWS V14.01,2013-05-15 00:28:00,
2013-05-14 19:32:00,74.1,70.7,30.11,SE,138,8.0,17.0,89,0.00,,---,0.00,VWS V14.01,2013-05-15 00:32:00,
2013-05-14 19:37:00,74.1,70.7,30.11,ESE,102,6.0,17.0,89,0.00,,---,0.00,VWS V14.01,2013-05-15 00:37:00,
2013-05-14 19:42:00,74.0,70.6,30.11,SE,127,8.0,17.0,89,0.00,,---,0.00,VWS V14.01,2013-05-15 00:42:00,
2013-05-14 19:47:00,74.0,70.9,30.11,ESE,102,13.0,17.0,90,0.00,,---,0.00,VWS V14.01,2013-05-15 00:47:00,
2013-05-14 19:52:00,73.9,70.5,30.11,ESE,118,12.0,17.0,89,0.00,,---,0.00,VWS V14.01,2013-05-15 00:52:00,
2013-05-14 19:58:00,73.9,70.5,30.11,ESE,108,11.0,17.0,89,0.00,,---,0.00,VWS V14.01,2013-05-15 00:58:00,
2013-05-14 20:03:00,73.9,70.5,30.11,SE,129,11.0,13.0,89,0.00,,---,0.00,VWS V14.01,2013-05-15 01:03:00,
2013-05-14 20:08:00,73.8,70.4,30.11,ESE,109,9.0,18.0,89,0.00,,---,0.00,VWS V14.01,2013-05-15 01:08:00,
2013-05-14 20:13:00,73.7,70.3,30.11,ESE,117,12.0,18.0,89,0.00,,---,0.00,VWS V14.01,2013-05-15 01:13:00,
2013-05-14 20:17:00,73.7,70.3,30.11,East,87,12.0,18.0,89,0.00,,---,0.00,VWS V14.01,2013-05-15 01:17:00,
2013-05-14 20:22:00,73.7,70.3,30.11,SSE,149,10.0,18.0,89,0.00,,---,0.00,VWS V14.01,2013-05-15 01:22:00,
2013-05-14 20:27:00,73.6,70.2,30.12,East,89,17.0,18.0,89,0.00,,---,0.00,VWS V14.01,2013-05-15 01:27:00,
2013-05-14 20:32:00,73.6,70.2,30.12,ESE,120,6.0,18.0,89,0.00,,---,0.00,VWS V14.01,2013-05-15 01:32:00,
2013-05-14 20:37:00,73.6,70.2,30.12,SE,145,6.0,18.0,89,0.00,,---,0.00,VWS V14.01,2013-05-15 01:37:00,
2013-05-14 20:42:00,73.6,70.5,30.12,ESE,120,7.0,18.0,90,0.00,,---,0.00,VWS V14.01,2013-05-15 01:42:00,
2013-05-14 20:47:00,73.5,70.1,30.12,SSE,148,5.0,18.0,89,0.00,,---,0.00,VWS V14.01,2013-05-15 01:47:00,
2013-05-14 20:52:00,73.5,70.1,30.13,SSE,152,12.0,18.0,89,0.00,,---,0.00,VWS V14.01,2013-05-15 01:52:00,
2013-05-14 20:57:00,73.5,70.1,30.13,ESE,110,14.0,18.0,89,0.00,,---,0.00,VWS V14.01,2013-05-15 01:57:00,
2013-05-14 21:02:00,73.5,70.1,30.13,ESE,109,6.0,10.0,89,0.00,,---,0.00,VWS V14.01,2013-05-15 02:02:00,
2013-05-14 21:07:00,73.6,70.2,30.13,ESE,123,3.0,17.0,89,0.00,,---,0.00,VWS V14.01,2013-05-15 02:07:00,
2013-05-14 21:12:00,73.6,70.2,30.13,ESE,105,8.0,17.0,89,0.00,,---,0.00,VWS V14.01,2013-05-15 02:12:00,
2013-05-14 21:17:00,73.6,70.2,30.13,East,101,8.0,17.0,89,0.00,,---,0.00,VWS V14.01,2013-05-15 02:17:00,
2013-05-14 21:22:00,73.4,70.0,30.12,ESE,116,7.0,17.0,89,0.00,,---,0.00,VWS V14.01,2013-05-15 02:22:00,
2013-05-14 21:27:00,73.4,70.0,30.12,SE,142,5.0,17.0,89,0.00,,---,0.00,VWS V14.01,2013-05-15 02:27:00,
2013-05-14 21:32:00,73.5,70.1,30.12,ESE,120,10.0,17.0,89,0.00,,---,0.00,VWS V14.01,2013-05-15 02:32:00,
2013-05-14 21:37:00,73.4,70.0,30.12,SE,145,13.0,17.0,89,0.00,,---,0.00,VWS V14.01,2013-05-15 02:37:00,
2013-05-14 21:43:00,73.4,70.0,30.12,ESE,107,12.0,17.0,89,0.00,,---,0.00,VWS V14.01,2013-05-15 02:43:00,
2013-05-14 21:47:00,73.4,70.0,30.12,ESE,122,7.0,17.0,89,0.00,,---,0.00,VWS V14.01,2013-05-15 02:47:00,
2013-05-14 21:52:00,73.3,69.5,30.12,SSE,148,8.0,17.0,88,0.00,,---,0.00,VWS V14.01,2013-05-15 02:52:00,
2013-05-14 21:57:00,73.4,70.0,30.13,ESE,117,7.0,17.0,89,0.00,,---,0.00,VWS V14.01,2013-05-15 02:57:00,
2013-05-14 22:02:00,73.4,70.0,30.13,ESE,113,6.0,10.0,89,0.00,,---,0.00,VWS V14.01,2013-05-15 03:02:00,
2013-05-14 22:07:00,73.4,69.6,30.13,South,169,8.0,12.0,88,0.00,,---,0.00,VWS V14.01,2013-05-15 03:07:00,
2013-05-14 22:12:00,73.3,69.5,30.13,SSE,153,4.0,14.0,88,0.00,,---,0.00,VWS V14.01,2013-05-15 03:12:00,
2013-05-14 22:17:00,73.4,69.6,30.13,SSW,208,4.0,14.0,88,0.00,,---,0.00,VWS V14.01,2013-05-15 03:17:00,
2013-05-14 22:22:00,73.3,69.5,30.13,East,89,9.0,14.0,88,0.00,,---,0.00,VWS V14.01,2013-05-15 03:22:00,
2013-05-14 22:27:00,73.3,69.5,30.13,SE,128,8.0,14.0,88,0.00,,---,0.00,VWS V14.01,2013-05-15 03:27:00,
2013-05-14 22:32:00,73.3,69.5,30.13,ENE,71,6.0,14.0,88,0.00,,---,0.00,VWS V14.01,2013-05-15 03:32:00,
2013-05-14 22:37:00,73.3,69.5,30.13,ESE,117,6.0,14.0,88,0.00,,---,0.00,VWS V14.01,2013-05-15 03:37:00,
2013-05-14 22:42:00,73.3,69.5,30.14,SSE,157,4.0,14.0,88,0.00,,---,0.00,VWS V14.01,2013-05-15 03:42:00,
2013-05-14 22:47:00,73.3,69.5,30.14,South,170,5.0,14.0,88,0.00,,---,0.00,VWS V14.01,2013-05-15 03:47:00,
2013-05-14 22:52:00,73.3,69.5,30.14,SSE,166,7.0,15.0,88,0.00,,---,0.00,VWS V14.01,2013-05-15 03:52:00,
2013-05-14 22:57:00,73.3,69.5,30.14,ENE,72,3.0,15.0,88,0.00,,---,0.00,VWS V14.01,2013-05-15 03:57:00,
2013-05-14 23:01:00,73.3,69.5,30.14,SE,129,6.0,15.0,88,0.00,,---,0.00,VWS V14.01,2013-05-15 04:01:00,
2013-05-14 23:06:00,73.3,69.5,30.14,SE,133,4.0,12.0,88,0.00,,---,0.00,VWS V14.01,2013-05-15 04:06:00,
2013-05-14 23:11:00,73.3,69.5,30.14,East,85,4.0,13.0,88,0.00,,---,0.00,VWS V14.01,2013-05-15 04:11:00,
2013-05-14 23:16:00,73.4,69.3,30.14,SE,139,11.0,14.0,87,0.00,,---,0.00,VWS V14.01,2013-05-15 04:16:00,
2013-05-14 23:21:00,73.4,69.3,30.14,SE,128,12.0,15.0,87,0.00,,---,0.00,VWS V14.01,2013-05-15 04:21:00,
2013-05-14 23:26:00,73.5,69.4,30.15,South,173,5.0,17.0,87,0.00,,---,0.00,VWS V14.01,2013-05-15 04:26:00,
2013-05-14 23:31:00,73.5,69.4,30.15,SE,133,11.0,17.0,87,0.00,,---,0.00,VWS V14.01,2013-05-15 04:31:00,
2013-05-14 23:36:00,73.6,69.5,30.15,SSE,159,9.0,17.0,87,0.00,,---,0.00,VWS V14.01,2013-05-15 04:36:00,
2013-05-14 23:41:00,73.5,69.4,30.15,SSE,155,6.0,17.0,87,0.00,,---,0.00,VWS V14.01,2013-05-15 04:41:00,
2013-05-14 23:46:00,73.5,69.7,30.15,SE,132,9.0,17.0,88,0.00,,---,0.00,VWS V14.01,2013-05-15 04:46:00,
2013-05-14 23:51:00,73.5,69.7,30.15,South,177,14.0,17.0,88,0.00,,---,0.00,VWS V14.01,2013-05-15 04:51:00,
2013-05-14 23:56:00,73.4,69.6,30.15,South,170,9.0,17.0,88,0.00,,---,0.00,VWS V14.01,2013-05-15 04:56:00,